Startpagina
METAR-TAF:

METAR-TAF

Vliegvelden :

Vlieland Heliport

Vlieland, Nederland

breedte: 53-15N, lengte: 004-55E, hoogte: 11 m

Actueel weer

Dit bericht is 36 minuten geleden gemaakt, om 10:25 UTC
Wind 24 kt uit het zuidzuidwesten
Temperatuur 21°C
Vochtigheid 73%
Druk 1012 hPa
Zicht 10 km of meer
Weinig wolken op 2200 ft

METAR: EHVL 191025Z AUTO 21024KT 9999 FEW022 21/16 Q1012 BLU

Tijdstip: 13:01 (11:01 UTC)


TAF: ontbreekt

Waarnemingen en weersverwachtingen van meer dan 4000 vliegvelden (METAR en TAF).

De beschikbare stations zijn de gele en rode punten op de kaart.

Ga met uw muis naar het station om de naam te zien.

Klik dan om waarnemingen en weersverwachtingen te zien.

kaart wijzigen: klik op de groene knoppen met een zwart kruis om in te zoomen, op de groene knop met een streepje om uit te zoomen of op de groene pijlen voor aangrenzende kaarten.


METAR-TAF: